Showing default

CANX-4, 40055

Orbit data source: Space-Track

CANX-4, 40055 is a payload satellite owned by UTIAS-SFL (CA) in SSO that was launched on Mon, 30 Jun 2014 UTC via a PSLV launch vehicle from the Sirharikota (SRI). Payload-class satellites include a variety of spacecraft equipped with specific instruments for various scientific and technological missions. These include communications satellites like Starlink; space stations such as the ISS; scientific satellites like the Hubble; Earth observation satellites from companies like Planet Labs, Umbra, and HawkEye 360; GPS; miniature CubeSats for education and research; and military/defense satellites.

Loading next visibility...
Identifier
40055, 2014-034C
Orbit
SSO
Last TLE update
4 hours ago
Origin
Manufacturer
UTIAS-SFL
Mission
Operational Amateur Technology
Bus & Motor
GNB, Unknown motor
Mass
7 kg wet, 7 kg dry
Launch date (UTC)
2014-06-30 (11 years ago)
Launch vehicle
PSLV
Launch site
Sirharikota (SRI)
Object type
Payload
Rocket body
Debris
Shape & HBR
Box + 4 Ant, 0.2 m
Radar Cross Section
0.060 m², Medium (>0.1 m² and < 1m²)

Expand to show TLE details & history

TLE from 4 hours ago
0 CANX-4
1 40055U 14034C   25129.52153891  .00001271  00000-0  17479-3 0  9991
2 40055  98.3664 343.9636 0012078 223.0484 136.9783 14.80145616584827
Epoch: 2025-05-09T12:31Z
Definitive object data (Epoch: 2025-05-09T12:31:00.961Z)
Latitude
-0.00001°
Longitude
-71.36689°
Altitude
638.065 km
Speed
7.536 km/s
True Right ascension
22h 55m 51s
True Declination
0° 00' 00"
Sunlit
Object was in daylight at TLE epoch
Visualization TLE readout
Latitude
-17.10144°
Longitude
106.23315°
Altitude
627.979 km
Speed
7.548 km/s
Apparent Right ascension
11h 38m 05s
Apparent Declination
-28° 40' 15"
Sunlit
Object is in full shadow
Visualization observer readout
Local Sidereal Time
00:49:31
Azimuth
58.035° ENE
Elevation
-71.511°
Doppler factor
1
Orbital elements
Apogee altitude
634.386 km
Perigee altitude
617.467 km
Semi-major axis
7,004.064 km
Eccentricity
0.0012078
Inclination
98.3664°
RAAN
343.9636°
Arg. of periapsis
223.0484°
True anomaly
137.07263°
Mean anomaly
136.9783°
Eccentric anomaly
137.02547°
Mean motion
3.7027 °/min
BSTAR
0.00017479
Orbital period
97.23 mins
Loading maneuver chart data...
Loading SW <> Apogee altitude chart data...
Loading historical data...
Loading historical data...
Loading historical data...
Loading historical data...
Loading historical data...
Loading historical data...
Loading historical data...
Other satellites on launch #34 in the year 2014 (2014-06-30 UTC)

CANX-4 Visibility forecast

Observer location: undefined°, undefined°

Span
Click to sort rows by Start time (UTC) header in descending order
Start Az.
Max El. time (UTC)
Max El. Az.
Max El.
End time (UTC)
End Az.
4 mins2025-05-10 02:06:00.425Z61.526° ENE2025-05-10 02:08:00.425Z92.273° ESE15.97°2025-05-10 02:10:00.425Z123.599° SE
6 mins2025-05-10 03:42:00.425Z347.162° N2025-05-10 03:44:00.425Z305.65° NW32.477°2025-05-10 03:48:00.425Z221.685° SW
7 mins2025-05-10 14:36:00.425Z187.179° SSW2025-05-10 14:39:00.425Z246.834° WSW37.826°2025-05-10 14:43:00.425Z334.448° NNW
|